Location: Unspecified
(0.0000°N, 0.0000°E)
Time: 18:58:56
(UTC+00:00)

N. Korean satellite - Pass Details

Date: 16 December 2017
Orbit: 461 x 513 km, 97.2° (Epoch: 10 December)

Event Time Altitude Azimuth Distance (km) Brightness Sun altitude
Rises 18:47:18 0° 185° (S) 2,552 10.6 -11.8°
Reaches altitude 10° 18:49:30 10° 196° (SSW) 1,678 9.9 -12.3°
Maximum altitude 18:52:44 31° 259° (W) 888 8.7 -13.0°
Drops below altitude 10° 18:56:00 10° 323° (NW) 1,697 9.5 -13.8°
Sets 18:58:14 0° 333° (NNW) 2,585 10.3 -14.3°
